User: anonymous   Login
Location: Theydon Bois
(51.6750°N, 0.1050°E)
Time: 13:30:43
(UTC+01:00)
Language:

Cosmos 1766 Rocket - Orbit

View from above orbital plane
View from above orbital plane
View from above satellite
View from above satellite

Ground track
Ground track

The orbit data is extracted from the following two-line orbital elements,

1 16882U 86055B   18174.78694793  .00000058  00000-0  41742-5 0  9999
2 16882  82.5217 245.6625 0018327 261.5438 238.4232 14.83163832722961
Epoch (UTC): 23 June 2018 18:53:12
Eccentricity: 0.0018327
inclination: 82.5217°
perigee height: 606 km
apogee height: 632 km
right ascension of ascending node: 245.6625°
argument of perigee: 261.5438°
revolutions per day: 14.83163832
mean anomaly at epoch: 238.4232°
orbit number at epoch: 72296

The dashed part of the orbit path shows where the satellite is in the earth's shadow,  

DLR